"Time","Temp","Dewpoint","Humidity","Pressure","Direction","Speed","Gust","Precip","PrecipRate"
"00:04:56","42.7","16","33.6","30.28","342","6.6","15","0.00","0.00"
"00:09:56","42.7","14.3","31.3","30.28","331","9.1","18","0.00","0.00"
"00:14:59","42.9","13","29.3","30.28","327","10.5","22","0.00","0.00"
"00:19:58","42.8","13","29.3","30.28","338","10.2","20.7","0.00","0.00"
"00:24:56","42.5","13.2","30","30.28","335","8","14","0.00","0.00"
"00:29:58","42.3","13","30","30.28","311","8.8","27","0.00","0.00"
"00:34:56","42.2","13.1","30.3","30.28","336","8.6","17.3","0.00","0.00"
"00:39:56","42.1","13.6","31","30.28","343","6.9","14","0.00","0.00"
"00:44:59","41.8","13.5","31.3","30.29","340","6.7","19.6","0.00","0.00"
"00:49:57","41.6","13.7","31.8","30.29","344","7.1","18","0.00","0.00"
"00:54:59","41.4","14","32.3","30.29","332","6.2","21","0.00","0.00"
"00:59:57","41.2","14.2","33","30.29","338","6.7","20.7","0.00","0.00"
"01:04:58","41.1","13.8","32.6","30.29","335","7.9","16.1","0.00","0.00"
"01:09:59","41","13.4","32","30.29","339","7","16.1","0.00","0.00"
"01:14:59","40.8","12.5","31","30.29","336","8","16.1","0.00","0.00"
"01:19:58","40.6","12.2","30.8","30.29","332","6.6","15","0.00","0.00"
"01:24:56","40.4","12.1","31","30.29","323","7.7","17","0.00","0.00"
"01:29:59","40.3","12","31","30.29","342","8.6","17.3","0.00","0.00"
"01:34:58","40.1","11.8","31","30.29","341","7.2","17.3","0.00","0.00"
"01:39:59","39.8","11.6","31","30.29","355","6.7","21","0.00","0.00"
"01:44:58","39.7","11.9","31.6","30.31","347","9.2","17.3","0.00","0.00"
"01:49:57","39.6","11.6","31.3","30.31","331","8.3","14","0.00","0.00"
"01:54:56","39.4","11.8","31.8","30.31","326","7.5","14","0.00","0.00"
"01:59:58","39.2","11.8","32","30.31","327","7.5","16.1","0.00","0.00"
"02:04:59","39","11.6","32","30.30","337","7.3","18","0.00","0.00"
"02:09:57","38.9","11.4","31.8","30.30","339","7.6","18.4","0.00","0.00"
"02:14:57","38.7","11.5","32.2","30.31","339","6.5","19.6","0.00","0.00"
"02:19:59","38.5","11.4","32.3","30.31","330","5.7","14","0.00","0.00"
"02:24:59","38.3","11.5","32.7","30.31","334","3.5","13.8","0.00","0.00"
"02:29:58","38.1","11.5","33","30.31","341","5","10.4","0.00","0.00"
"02:34:57","37.8","11.4","33.3","30.31","339","3.3","8","0.00","0.00"
"02:39:58","37.5","11.4","33.7","30.31","329","4.1","11","0.00","0.00"
"02:44:57","37.3","11.2","33.6","30.32","349","3.6","15","0.00","0.00"
"02:49:59","37","11.2","33.9","30.32","355","2.6","9.2","0.00","0.00"
"02:54:58","36.7","10.6","33.5","30.32","341","3.1","7","0.00","0.00"
"02:59:57","36.5","10.3","33.4","30.33","343","4.4","17.3","0.00","0.00"
"03:04:58","36.4","10","33","30.33","334","3.3","9.2","0.00","0.00"
"03:09:55","36.3","9.9","33","30.33","343","2.4","6","0.00","0.00"
"03:14:56","36.2","10.1","33.4","30.34","314","2.2","6","0.00","0.00"
"03:19:59","35.9","10.7","34.6","30.34","321","0.8","3.5","0.00","0.00"
"03:24:59","35.5","11.4","36.4","30.34","323","0.4","2","0.00","0.00"
"03:29:59","35","11.3","37","30.34","323","1.1","3.5","0.00","0.00"
"03:34:58","34.6","11.7","38.2","30.34","324","2","4","0.00","0.00"
"03:39:59","34.2","11.7","38.8","30.34","322","2.2","5","0.00","0.00"
"03:44:58","33.9","11.5","39","30.34","342","2","7","0.00","0.00"
"03:49:57","33.7","11.3","38.9","30.34","343","2.2","7","0.00","0.00"
"03:54:56","33.7","11.1","38.7","30.34","328","2.5","6","0.00","0.00"
"03:59:59","33.6","10.8","38.3","30.34","344","2.6","7","0.00","0.00"
"04:04:56","33.6","10.7","38","30.34","335","2.1","6","0.00","0.00"
"04:09:58","33.6","10.5","37.7","30.34","333","3.3","6","0.00","0.00"
"04:14:59","33.6","10.6","37.9","30.34","322","3.2","7","0.00","0.00"
"04:19:58","33.7","10.7","38","30.34","318","3.2","6.9","0.00","0.00"
"04:24:57","33.6","10.7","38.2","30.34","311","1.9","3.5","0.00","0.00"
"04:29:57","33.3","10.9","38.7","30.34","322","2.8","7","0.00","0.00"
"04:34:56","33.2","10.4","38.2","30.34","326","4.8","11.5","0.00","0.00"
"04:39:56","33.2","10.3","38","30.34","338","4.9","11.5","0.00","0.00"
"04:44:56","33.2","10.4","38.1","30.35","325","4","9.2","0.00","0.00"
"04:49:59","33.1","10.2","38.1","30.35","328","2.9","7","0.00","0.00"
"04:54:58","32.9","10.1","38.2","30.35","341","2.8","7","0.00","0.00"
"04:59:57","32.8","9.9","38","30.36","344","1.5","5","0.00","0.00"
"05:04:59","32.6","9.8","38","30.36","0","1.9","5","0.00","0.00"
"05:09:57","32.5","9.7","38","30.36","341","3","7","0.00","0.00"
"05:14:57","32.4","10.1","38.7","30.37","346","2","6","0.00","0.00"
"05:19:56","32.2","9.9","38.9","30.37","326","2.8","7","0.00","0.00"
"05:24:56","32","10.2","39.7","30.37","341","3.7","7","0.00","0.00"
"05:29:56","31.8","10.2","40","30.37","339","3.2","6","0.00","0.00"
"05:34:58","31.7","10.1","39.9","30.36","343","1.7","6","0.00","0.00"
"05:39:59","31.7","9.9","39.8","30.36","347","1.7","5.8","0.00","0.00"
"05:44:58","31.5","9.9","40","30.38","21","1.3","4","0.00","0.00"
"05:49:57","31.4","9.8","40","30.38","352","1.3","4","0.00","0.00"
"05:54:57","31.2","9.6","40","30.38","342","1.8","4","0.00","0.00"
"05:59:56","31","9.8","40.6","30.38","2","2","5","0.00","0.00"
"06:04:58","31","9.8","40.6","30.38","351","1.6","4","0.00","0.00"
"06:09:57","30.8","9.8","41","30.38","355","0.9","3.5","0.00","0.00"
"06:14:58","30.6","9.7","41","30.39","350","2.2","9.2","0.00","0.00"
"06:19:57","30.6","10","41.6","30.39","334","2.3","10.4","0.00","0.00"
"06:24:59","30.6","10","41.5","30.39","341","2.3","10.4","0.00","0.00"
"06:29:59","30.5","9.8","41.4","30.39","349","1.9","5","0.00","0.00"
"06:34:58","30.4","9.5","41","30.39","346","1.2","5","0.00","0.00"
"06:39:59","30.3","9.6","41.4","30.39","334","2.2","10","0.00","0.00"
"06:44:58","30.3","9.9","42","30.40","346","3.2","10.4","0.00","0.00"
"06:49:57","30.3","9.8","41.8","30.40","5","1.9","6","0.00","0.00"
"06:54:57","30.2","9.7","41.8","30.40","351","1.2","4","0.00","0.00"
"06:59:57","30.1","9.6","42","30.41","330","1.2","3.5","0.00","0.00"
"07:04:59","29.9","9.7","42.2","30.41","313","1.8","4","0.00","0.00"
"07:09:57","29.8","9.8","42.7","30.41","322","2.2","4","0.00","0.00"
"07:14:57","29.8","9.7","42.4","30.41","326","3.2","6","0.00","0.00"
"07:19:57","29.8","9.9","42.8","30.41","323","2.4","4","0.00","0.00"
"07:24:57","29.8","10","43","30.41","328","2.6","5","0.00","0.00"
"07:29:56","29.7","9.7","42.5","30.41","339","2.7","5","0.00","0.00"
"07:34:59","29.7","9.9","43","30.41","332","2.4","6","0.00","0.00"
"07:39:57","29.7","10.1","43.3","30.41","315","1.9","5.8","0.00","0.00"
"07:44:57","29.6","10.1","43.5","30.42","304","2.2","5","0.00","0.00"
"07:49:59","29.7","9.7","42.6","30.42","317","2.9","7","0.00","0.00"
"07:54:59","30","10","42.6","30.42","320","4.5","7","0.00","0.00"
"07:59:58","30.3","10","42.3","30.43","330","4.4","10","0.00","0.00"
"08:04:59","30.6","10.2","42","30.43","333","4.6","12","0.00","0.00"
"08:09:57","30.8","9.9","41.2","30.43","327","4.1","10.4","0.00","0.00"
"08:14:59","31.2","10.2","41","30.44","359","3.6","10.4","0.00","0.00"
"08:19:57","31.6","10","39.9","30.44","336","4.9","14","0.00","0.00"
"08:24:59","31.9","9.9","39.3","30.44","317","2.9","13.8","0.00","0.00"
"08:29:59","32.1","9.9","39.1","30.44","339","3.8","12","0.00","0.00"
"08:34:57","32.3","10.1","39.1","30.44","350","4.3","10","0.00","0.00"
"08:39:58","32.5","10.4","39.2","30.44","2","3.1","9","0.00","0.00"
"08:44:56","32.8","10.7","39.2","30.44","332","2.7","7","0.00","0.00"
"08:49:59","33.2","10.5","38.4","30.44","335","3.3","14","0.00","0.00"
"08:54:57","33.2","10","37.5","30.44","337","5.4","13.8","0.00","0.00"
"08:59:56","33","9.7","37.4","30.44","330","7.3","15","0.00","0.00"
"09:04:57","32.8","9","36.5","30.44","349","7.6","17.3","0.00","0.00"
"09:09:59","32.5","8.5","36","30.44","339","6.9","17.3","0.00","0.00"
"09:14:58","32.6","8.3","35.6","30.45","345","5.6","14","0.00","0.00"
"09:19:57","33.1","8.9","35.8","30.45","339","4.3","7","0.00","0.00"
"09:24:56","33.8","9.1","35.2","30.45","353","3.8","13","0.00","0.00"
"09:29:59","34","7.5","32.5","30.45","354","4.4","11.5","0.00","0.00"
"09:34:58","33.6","7.1","32.3","30.44","358","6.3","15","0.00","0.00"
"09:39:59","33.5","6.7","32.1","30.44","349","4","10.4","0.00","0.00"
"09:44:57","33.6","6.8","32.1","30.44","354","6.4","15","0.00","0.00"
"09:49:56","33.6","6.6","31.7","30.44","34","6","15","0.00","0.00"
"09:54:59","33.7","5.5","30.1","30.44","33","4.9","13.8","0.00","0.00"
"09:59:58","34","6.1","30.4","30.45","344","3.5","10.4","0.00","0.00"
"10:04:59","34.2","6.1","30.2","30.45","349","3.3","14","0.00","0.00"
"10:09:57","34.4","5.7","29.4","30.45","338","6.2","18","0.00","0.00"
"10:14:58","34.3","5.3","29","30.45","351","7.7","18.4","0.00","0.00"
"10:19:58","34.4","5.6","29.4","30.45","355","3.9","13","0.00","0.00"
"10:24:57","34.7","5.5","28.8","30.45","346","5","13","0.00","0.00"
"10:29:58","35","6.2","29.3","30.46","348","3.1","14","0.00","0.00"
"10:34:58","35.4","6","28.6","30.46","342","4.9","11.5","0.00","0.00"
"10:39:59","36","6.5","28.6","30.46","354","5.9","13","0.00","0.00"
"10:44:58","36.5","6.5","28.1","30.46","112","2.6","12","0.00","0.00"
"10:49:57","36.8","6.9","28.3","30.46","345","3.7","15","0.00","0.00"
"10:54:57","36.9","7.2","28.5","30.46","18","3.3","10.4","0.00","0.00"
"10:59:56","36.9","6.9","28","30.46","8","4.3","13","0.00","0.00"
"11:04:57","36.9","7.1","28.4","30.46","347","5.7","11.5","0.00","0.00"
"11:09:59","37.3","8.8","30.2","30.46","12","2.8","7","0.00","0.00"
"11:14:59","37.9","8.7","29.4","30.46","328","4.5","10.4","0.00","0.00"
"11:19:58","38.2","8.4","28.7","30.46","334","4.2","12","0.00","0.00"
"11:24:57","38.5","8","27.8","30.46","341","5.3","15","0.00","0.00"
"11:29:56","38.1","7","27","30.46","333","5.9","12","0.00","0.00"
"11:34:59","37.9","8.5","29.1","30.45","349","3.2","10.4","0.00","0.00"
"11:39:55","38.6","10.5","30.9","30.45","6","2","5","0.00","0.00"
"11:44:58","39.6","10.4","29.7","30.45","357","3.4","10.4","0.00","0.00"
"11:49:57","39.5","9","27.9","30.45","346","3.4","10.4","0.00","0.00"
"11:54:56","39.2","9.1","28.5","30.45","322","2.3","7","0.00","0.00"
"11:59:59","39.3","9.5","28.8","30.45","347","3.6","9.2","0.00","0.00"
"12:04:59","39.5","9.3","28.4","30.45","343","3.5","8.1","0.00","0.00"
"12:09:57","39.3","9.1","28.4","30.45","349","3.3","10.4","0.00","0.00"
"12:14:57","39.3","9.8","29.2","30.46","354","3.6","9.2","0.00","0.00"
"12:19:56","39.2","8.6","27.7","30.46","341","3.5","6","0.00","0.00"
"12:24:59","38.9","8.2","27.6","30.46","336","1.9","6","0.00","0.00"
"12:29:58","38.7","8.8","28.7","30.46","25","2.7","6","0.00","0.00"
"12:34:57","38.7","9","28.9","30.45","351","3.4","10","0.00","0.00"
"12:39:57","38.9","8.8","28.3","30.45","338","5.6","12","0.00","0.00"
"12:44:56","39.3","9.7","29.1","30.45","339","4.2","11.5","0.00","0.00"
"12:49:59","40","11.2","30.3","30.44","8","2.4","6","0.00","0.00"
"12:54:58","40.7","11","29.3","30.44","335","4.4","12","0.00","0.00"
"12:59:56","41","11.8","30.1","30.44","305","2.4","7","0.00","0.00"
"13:04:57","41.5","10.7","28","30.44","347","3.2","10.4","0.00","0.00"
"13:09:59","41.9","10.1","26.8","30.44","330","5.2","11","0.00","0.00"
"13:14:56","42.2","11.2","27.8","30.44","334","2.9","11.5","0.00","0.00"
"13:19:59","42.6","11.9","28.3","30.44","148","1.8","4","0.00","0.00"
"13:24:57","42.6","13","29.7","30.44","85","2.7","8","0.00","0.00"
"13:29:56","43","11.3","27.1","30.44","329","4.1","10","0.00","0.00"
"13:34:58","42.6","9.1","24.9","30.42","328","4.5","9.2","0.00","0.00"
"13:39:58","42.5","11","27.2","30.42","22","3","9","0.00","0.00"
"13:44:56","43","11","26.7","30.42","350","3.9","9.2","0.00","0.00"
"13:49:59","43","10.8","26.5","30.42","352","3.9","10","0.00","0.00"
"13:54:59","43.2","11.9","27.7","30.42","357","1.2","4","0.00","0.00"
"13:59:59","43.7","12.2","27.4","30.42","341","2.8","7","0.00","0.00"
"14:04:56","44.2","14","29.1","30.41","316","1.4","4","0.00","0.00"
"14:09:57","44.8","13.7","28.2","30.41","331","2.1","5","0.00","0.00"
"14:14:58","44.7","12.7","27.1","30.41","94","2.1","5","0.00","0.00"
"14:19:57","44.3","13.2","28.1","30.40","69","2.5","9.2","0.00","0.00"
"14:24:59","44.1","11.9","26.7","30.40","35","2.1","5.8","0.00","0.00"
"14:29:58","44.3","11.8","26.4","30.40","244","1.9","4","0.00","0.00"
"14:34:57","44.6","13.6","28.2","30.39","254","2.1","6","0.00","0.00"
"14:39:56","45.1","12.5","26.4","30.39","301","2.8","6","0.00","0.00"
"14:44:59","45.1","13.2","27.2","30.39","258","2.4","9","0.00","0.00"
"14:49:58","45.3","12","25.7","30.39","341","5.2","10.4","0.00","0.00"
"14:54:56","45.5","12.9","26.4","30.39","320","2.5","9.2","0.00","0.00"
"14:59:59","45.7","11.2","24.3","30.39","309","2.4","9","0.00","0.00"
"15:04:56","45.7","12.3","25.6","30.38","329","3.4","9.2","0.00","0.00"
"15:09:58","45.5","10.5","23.9","30.38","319","3.2","6","0.00","0.00"
"15:14:58","45","12.2","26.2","30.38","142","1.2","4","0.00","0.00"
"15:19:56","45.5","12.5","26.1","30.38","4","1.4","4","0.00","0.00"
"15:24:59","45.5","10.3","23.6","30.38","347","3.4","9.2","0.00","0.00"
"15:29:59","45.6","11.8","25","30.38","340","1.7","6","0.00","0.00"
"15:34:57","46.2","12.9","25.8","30.38","4","1.7","7","0.00","0.00"
"15:39:59","46.4","13.7","26.5","30.38","89","2.8","5","0.00","0.00"
"15:44:58","46","11.2","24.2","30.38","15","1.9","7","0.00","0.00"
"15:49:57","46.4","12.3","24.9","30.36","296","2.6","5","0.00","0.00"
"15:54:56","46.4","10.9","23.5","30.36","319","1.7","4","0.00","0.00"
"15:59:58","46.3","11.4","24","30.37","340","1.9","4","0.00","0.00"
"16:04:59","46.3","14.4","27.4","30.37","121","1.3","3.5","0.00","0.00"
"16:09:57","46.9","13.3","25.5","30.37","111","1.8","4","0.00","0.00"
"16:14:57","47.3","13.5","25.3","30.37","209","1.7","5","0.00","0.00"
"16:19:56","47.4","13.2","25","30.37","163","1.4","3.5","0.00","0.00"
"16:24:58","47.1","11.6","23.5","30.37","129","2.3","5","0.00","0.00"
"16:29:57","46.4","11.4","23.9","30.37","152","2.3","4","0.00","0.00"
"16:34:56","46.2","12.2","25","30.36","138","1.7","4","0.00","0.00"
"16:39:59","46.6","12.6","25","30.36","196","2.5","4","0.00","0.00"
"16:44:58","46.8","12.7","24.9","30.36","178","2.2","4","0.00","0.00"
"16:49:56","46.6","12.4","24.8","30.36","236","1.9","5","0.00","0.00"
"16:54:59","46.4","10.5","23","30.36","302","2","4","0.00","0.00"
"16:59:57","45.9","10.4","23.3","30.36","268","1.2","3.5","0.00","0.00"
"17:04:59","45.8","10.5","23.4","30.36","308","1.7","4","0.00","0.00"
"17:09:57","46.3","11.2","23.8","30.36","313","1.6","4","0.00","0.00"
"17:14:58","46.8","12.9","25.1","30.36","324","1.4","3.5","0.00","0.00"
"17:19:57","47.2","12.3","24.1","30.36","313","1.9","5","0.00","0.00"
"17:24:56","47.3","11","22.7","30.36","330","1.9","4.6","0.00","0.00"
"17:29:55","47","11","22.9","30.36","320","1.1","3.5","0.00","0.00"
"17:34:58","46.4","10.1","22.5","30.36","209","2.1","5","0.00","0.00"
"17:39:58","45.6","9.9","23","30.36","159","1.9","3.5","0.00","0.00"
"17:44:56","45.2","9","22.5","30.36","157","1.4","3.5","0.00","0.00"
"17:49:56","44.9","10.9","24.8","30.36","157","0.6","2.3","0.00","0.00"
"17:54:59","44.7","9.7","23.6","30.36","144","0.8","3.5","0.00","0.00"
"17:59:57","44.6","10.1","24.2","30.36","138","1","3.5","0.00","0.00"
"18:04:59","44.5","10.2","24.3","30.36","138","0.2","2.3","0.00","0.00"
"18:09:58","44.5","9.6","23.7","30.36","135","0.5","2.3","0.00","0.00"
"18:14:58","44.5","10.5","24.7","30.36","134","0.3","1.2","0.00","0.00"
"18:19:56","44.5","12.5","26.9","30.36","134","1.1","2.3","0.00","0.00"
"18:24:58","44.4","10","24.3","30.36","134","0.6","2.3","0.00","0.00"
"18:29:57","44.3","10.2","24.5","30.36","134","0.9","2.3","0.00","0.00"
"18:34:59","44.2","9.8","24.3","30.36","134","1.2","3","0.00","0.00"
"18:39:59","44","10.4","25","30.36","134","1.3","3.5","0.00","0.00"
"18:44:57","43.9","10.8","25.6","30.36","134","1.3","2.3","0.00","0.00"
"18:49:56","43.8","9.8","24.6","30.35","134","1","2.3","0.00","0.00"
"18:54:56","43.7","9.6","24.5","30.35","134","0.7","2.3","0.00","0.00"
"18:59:59","43.7","9.4","24.2","30.35","134","0.1","1.2","0.00","0.00"
"19:04:57","43.6","9.8","24.8","30.35","134","0.2","1.2","0.00","0.00"
"19:09:56","43.6","10.9","26","30.35","133","0.9","3","0.00","0.00"
"19:14:57","43.4","11.6","27.1","30.35","129","2.5","3.5","0.00","0.00"
"19:19:57","43.2","11.8","27.4","30.34","128","1.6","3.5","0.00","0.00"
"19:24:56","43.1","11.3","27","30.34","128","2.1","3.5","0.00","0.00"
"19:29:56","43.1","11.6","27.3","30.34","127","1.4","3.5","0.00","0.00"
"19:34:58","43","11.1","26.8","30.33","126","1.8","3.5","0.00","0.00"
"19:39:59","43","11.3","27.1","30.33","126","1.4","3.5","0.00","0.00"
"19:44:58","42.9","10.9","26.7","30.34","126","1.4","3.5","0.00","0.00"
"19:49:57","42.9","10.7","26.4","30.34","126","1","2.3","0.00","0.00"
"19:54:56","42.9","11.1","27","30.34","126","1.4","3.5","0.00","0.00"
"19:59:59","42.8","11.1","27","30.34","126","0.6","2.3","0.00","0.00"
"20:04:57","42.7","11.2","27.3","30.34","126","0.7","2.3","0.00","0.00"
"20:09:56","42.6","11.3","27.4","30.34","126","1","2.3","0.00","0.00"
"20:14:56","42.6","11","27.2","30.34","126","0.6","2.3","0.00","0.00"
"20:19:59","42.5","11.6","28","30.33","126","0.8","2.3","0.00","0.00"
"20:24:58","42.5","12.2","28.8","30.33","126","0.6","2.3","0.00","0.00"
"20:29:57","42.4","12.1","28.7","30.33","126","0.8","2.3","0.00","0.00"
"20:34:57","42.3","11.6","28.1","30.33","126","0.9","2.3","0.00","0.00"
"20:39:57","42.3","11.3","27.8","30.33","126","0.5","1.2","0.00","0.00"
"20:44:57","42.3","11.9","28.5","30.34","126","0.3","1.2","0.00","0.00"
"20:49:59","42.2","12.4","29.3","30.34","126","0","1.2","0.00","0.00"
"20:54:58","42.1","13.8","31.3","30.34","126","0.2","1.2","0.00","0.00"
"20:59:57","42","15","33.2","30.34","126","0.4","1.2","0.00","0.00"
"21:04:59","41.8","15.5","34.1","30.34","126","0.1","1.2","0.00","0.00"
"21:09:58","41.7","15.2","33.7","30.34","126","0.4","1.2","0.00","0.00"
"21:14:59","41.6","16.1","35.3","30.35","126","0.6","2","0.00","0.00"
"21:19:56","41.5","14.2","32.7","30.35","126","0","1.2","0.00","0.00"
"21:24:59","41.4","13.6","31.8","30.35","126","0","0","0.00","0.00"
"21:29:57","41.4","13.8","32.1","30.35","126","0.2","1.2","0.00","0.00"
"21:34:59","41.5","13.4","31.5","30.35","126","0.1","1.2","0.00","0.00"
"21:39:58","41.6","13.9","32","30.35","126","0.1","1.2","0.00","0.00"
"21:44:59","41.6","15.3","34.1","30.35","126","0","0","0.00","0.00"
"21:49:56","41.5","15.7","34.8","30.35","126","0.7","2.3","0.00","0.00"
"21:54:57","41.4","16.3","35.8","30.35","126","0.5","2.3","0.00","0.00"
"21:59:58","41.3","17.2","37.5","30.37","126","0","0","0.00","0.00"
"22:04:56","41.3","16.6","36.5","30.37","126","0","0","0.00","0.00"
"22:09:55","41.2","17.3","37.8","30.37","126","0","0","0.00","0.00"
"22:14:59","41.1","18.8","40.3","30.37","126","0.5","2.3","0.00","0.00"
"22:19:56","41.1","19.3","41.2","30.36","126","0.4","2.3","0.00","0.00"
"22:24:57","41","17.1","37.7","30.36","126","0.1","1.2","0.00","0.00"
"22:29:58","41","17.5","38.3","30.36","126","0","0","0.00","0.00"
"22:34:59","41","15.8","35.6","30.36","126","0.4","2","0.00","0.00"
"22:39:56","41.2","14.6","33.6","30.36","126","0.8","2.3","0.00","0.00"
"22:44:57","41.4","14.2","32.6","30.36","126","0.8","2.3","0.00","0.00"
"22:49:58","41.6","14.3","32.6","30.35","126","0.4","2","0.00","0.00"
"22:54:58","41.6","16.5","35.8","30.35","126","1","2.3","0.00","0.00"
"22:59:59","41.6","14.5","32.9","30.35","126","0.4","2","0.00","0.00"
"23:04:59","41.7","14","32","30.35","126","0.7","2.3","0.00","0.00"
"23:09:58","41.8","13.8","31.6","30.35","126","0.8","2.3","0.00","0.00"
"23:14:57","41.9","14.4","32.4","30.35","126","1","2.3","0.00","0.00"
"23:19:58","42","13.9","31.6","30.35","126","1.1","2.3","0.00","0.00"
"23:24:56","42","13.7","31.3","30.35","126","0.6","2.3","0.00","0.00"
"23:29:57","42","15.2","33.4","30.35","126","1.2","2.3","0.00","0.00"
"23:34:59","42","15.6","34.1","30.34","126","1.7","3.5","0.00","0.00"
"23:39:58","41.9","14.7","32.9","30.34","126","1.2","3.5","0.00","0.00"
"23:44:59","41.9","14.4","32.5","30.34","126","0.6","2.3","0.00","0.00"
"23:49:56","41.9","13.6","31.3","30.34","126","1","2.3","0.00","0.00"
"23:54:57","41.8","13.1","30.6","30.34","126","1.4","3","0.00","0.00"
"23:59:58","41.8","13.4","31.2","30.34","126","1.4","3.5","0.00","0.00"
